Location: Morisset
(33.1080°S, 151.4871°E)
Time: 09:12:00
(UTC+00:00)

Cosmos 332 Rocket - Pass Details

Date: 29 October 2020
Orbit: 682 x 704 km, 74.0° (Epoch: 28 November)

Event Time Altitude Azimuth Distance (km) Brightness Sun altitude
Exits shadow 17:08:59 25° 8° (N) 1,382 5.1 -21.2°
Maximum altitude 17:11:38 56° 77° (ENE) 816 4.3 -20.7°
Drops below altitude 10° 17:16:22 10° 154° (SSE) 2,151 7.2 -19.9°
Sets 17:18:44 0° 158° (SSE) 3,075 8.0 -19.5°
